This is the latest recevied weather packets stored in our database for station/object N4QEP-13. If no packets are shown the sender has not sent any weather packets the latest 10 day(s).
| Time | Temp. | Humidity | Pressure | Rain* | Wind** | Luminosity | Snow |
|---|---|---|---|---|---|---|---|
| 1777849226 | 24.44° C | 22% | 1018.1 hPa | 0 mm | - | - | - |
| 1777848326 | 24.44° C | 21% | 1018.1 hPa | 0 mm | - | - | - |
| 1777847424 | 24.44° C | 21% | 1018 hPa | 0 mm | - | - | - |
| 1777846523 | 24.44° C | 20% | 1018.1 hPa | 0 mm | - | - | - |
| 1777846522 | 24.44° C | 20% | 1018.1 hPa | 0 mm | - | - | - |
| 1777845620 | 25° C | 22% | 1018.2 hPa | 0 mm | - | - | - |
| 1777844719 | 25° C | 20% | 1018.3 hPa | 0 mm | - | - | - |
| 1777843818 | 25° C | 19% | 1018.5 hPa | 0 mm | - | - | - |
| 1777842914 | 25° C | 18% | 1018.7 hPa | 0 mm | - | - | - |
| 1777842011 | 25° C | 19% | 1018.8 hPa | 0 mm | - | - | - |
| 1777841111 | 25° C | 21% | 1018.9 hPa | 0 mm | - | - | - |
| 1777840210 | 25.56° C | 19% | 1019 hPa | 0 mm | - | - | - |
| 1777839304 | 24.44° C | 20% | 1019.3 hPa | 0 mm | - | - | - |
| 1777838407 | 24.44° C | 20% | 1019.4 hPa | 0 mm | - | - | - |
| 1777837501 | 24.44° C | 20% | 1019.7 hPa | 0 mm | - | - | - |
| 1777836671 | 24.44° C | 19% | 1020 hPa | 0 mm | - | - | - |
| 1777835765 | 23.89° C | 19% | 1020.5 hPa | 0 mm | - | - | - |
| 1777834857 | 23.89° C | 20% | 1020.7 hPa | 0 mm | - | - | - |
| 1777833954 | 23.89° C | 19% | 1021 hPa | 0 mm | - | - | - |
| 1777833068 | 23.89° C | 21% | 1021.1 hPa | 0 mm | - | - | - |
| 1777832178 | 23.33° C | 24% | 1021.1 hPa | 0 mm | - | - | - |
| 1777831249 | 23.33° C | 23% | 1021 hPa | 0 mm | - | - | - |
| 1777830348 | 23.33° C | 21% | 1021.2 hPa | 0 mm | - | - | - |
| 1777829453 | 22.78° C | 20% | 1021.4 hPa | 0 mm | - | - | - |
| 1777828543 | 22.78° C | 21% | 1021.6 hPa | 0 mm | - | - | - |
* Rain latest hour (hover to see other rain measurements)
** Current wind speed in m/s (hover to see current wind gust speed)